This is the latest recevied weather packets stored in our database for station/object DL1NER. If no packets are shown the sender has not sent any weather packets the latest 10 day(s).
| Time | Temp. | Humidity | Pressure | Rain* | Wind** | Luminosity | Snow |
|---|---|---|---|---|---|---|---|
| 1777641008 | 22.78° C | 31% | 1026.9 hPa | 0 mm | - | 0 W/m² | - |
| 1777640409 | 22.78° C | 33% | 1027 hPa | 0 mm | - | 0 W/m² | - |
| 1777639808 | 21.67° C | 33% | 1027.1 hPa | 0 mm | - | 0 W/m² | - |
| 1777639208 | 21.67° C | 35% | 1027.4 hPa | 0 mm | - | 0 W/m² | - |
| 1777638009 | 22.22° C | 31% | 1027.5 hPa | 0 mm | - | 0 W/m² | - |
| 1777637408 | 21.67° C | 33% | 1027.5 hPa | 0 mm | - | 0 W/m² | - |
| 1777636807 | 21.67° C | 37% | 1027.6 hPa | 0 mm | - | 0 W/m² | - |
| 1777636207 | 21.11° C | 33% | 1027.6 hPa | 0 mm | - | 0 W/m² | - |
| 1777635612 | 21.11° C | 33% | 1027.6 hPa | 0 mm | - | 0 W/m² | - |
| 1777635012 | 20.56° C | 34% | 1027.7 hPa | 0 mm | - | 0 W/m² | - |
| 1777634412 | 20.56° C | 32% | 1028 hPa | 0 mm | - | 0 W/m² | - |
| 1777633812 | 20.56° C | 33% | 1028.2 hPa | 0 mm | - | 0 W/m² | - |
| 1777633212 | 20.56° C | 33% | 1028.3 hPa | 0 mm | - | 0 W/m² | - |
| 1777632612 | 20° C | 35% | 1028.3 hPa | 0 mm | - | 0 W/m² | - |
| 1777632012 | 19.44° C | 31% | 1028.5 hPa | 0 mm | - | 0 W/m² | - |
| 1777631412 | 19.44° C | 32% | 1028.5 hPa | 0 mm | - | 0 W/m² | - |
| 1777630812 | 19.44° C | 35% | 1028.7 hPa | 0 mm | - | 0 W/m² | - |
| 1777630212 | 19.44° C | 34% | 1028.7 hPa | 0 mm | - | 0 W/m² | - |
| 1777629612 | 19.44° C | 38% | 1028.8 hPa | 0 mm | - | 0 W/m² | - |
| 1777629012 | 19.44° C | 33% | 1028.9 hPa | 0 mm | - | 0 W/m² | - |
| 1777628412 | 18.89° C | 34% | 1028.8 hPa | 0 mm | - | 0 W/m² | - |
| 1777627811 | 18.33° C | 36% | 1028.9 hPa | 0 mm | - | 0 W/m² | - |
| 1777627212 | 18.33° C | 38% | 1029 hPa | 0 mm | - | 0 W/m² | - |
| 1777626612 | 17.78° C | 36% | 1029 hPa | 0 mm | - | 0 W/m² | - |
| 1777626012 | 17.22° C | 39% | 1029 hPa | 0 mm | - | 0 W/m² | - |
* Rain latest hour (hover to see other rain measurements)
** Current wind speed in m/s (hover to see current wind gust speed)